{"data":{"norad_id":68670,"epoch":"2026-05-25T03:29:01.427424Z","epoch_age_seconds":72723,"freshness":"FRESH","line1":"1 68670U 26077J   26145.14515541  .00015437  00000+0  47944-3 0  9993","line2":"2 68670  97.2867  16.7007 0002184  86.0088 274.1404 15.33447740  6875","mean_motion":15.3344774,"eccentricity":0.0002184,"inclination_deg":97.2867,"raan_deg":16.7007,"arg_perigee_deg":86.0088,"mean_anomaly_deg":274.1404,"bstar":0.00047944,"rev_number":687,"period_min":93.90603686305,"perigee_km":464.04036420838,"apogee_km":467.02968014767,"semimajor_km":6843.672022178,"source":"CELESTRAK","updated_at":"2026-05-25T13:38:21.993060Z"}}